FW6934 Weather Reports


time (UTC)temp
F
wind
direction
speed
knots
gust
knots
rain 1hr
in
rain 24hr
in
rain mn
in
humidity
%
barometer
mb
20260506180028 63 290 1.7 4.3 0.00 0.00 0.00 74 1008.9
20260506175514 62 161 0.9 3.5 0.00 0.00 0.00 76 1008.8
20260506175057 62 158 0.0 5.2 0.00 0.00 0.00 76 1008.8
20260506174513 61 162 0.9 5.2 0.00 0.00 0.00 75 1008.8
20260506174002 62 278 1.7 4.3 0.00 0.00 0.00 76 1008.8
20260506173551 61 256 0.9 3.5 0.00 0.00 0.00 76 1008.8
20260506173010 61 306 0.0 2.6 0.00 0.00 0.00 76 1008.6
20260506172556 61 65 0.9 2.6 0.00 0.00 0.00 77 1008.6
20260506172015 61 319 0.9 4.3 0.00 0.00 0.00 78 1008.5
20260506171542 60 347 0.9 4.3 0.00 0.00 0.00 78 1008.6
20260506171009 60 170 0.9 3.5 0.00 0.00 0.00 78 1008.5
20260506170555 59 134 1.7 3.5 0.00 0.00 0.00 78 1008.5
20260506170014 59 169 0.0 2.6 0.00 0.00 0.00 80 1008.7
20260506165603 59 172 0.0 2.6 0.00 0.00 0.00 79 1008.7
20260506165051 59 173 0.9 4.3 0.00 0.00 0.00 79 1008.7
20260506164510 59 184 0.9 4.3 0.00 0.00 0.00 79 1008.7
20260506164102 59 49 0.0 1.7 0.00 0.00 0.00 79 1008.8
20260506163545 59 49 0.0 1.7 0.00 0.00 0.00 79 1008.7
20260506163003 59 49 0.0 1.7 0.00 0.00 0.00 79 1008.6
20260506162555 59 49 0.9 1.7 0.00 0.00 0.00 80 1008.7
20260506162041 59 49 0.0 2.6 0.00 0.00 0.00 80 1008.7
20260506161511 59 49 0.9 2.6 0.00 0.00 0.00 80 1008.7
20260506161102 59 48 0.9 2.6 0.00 0.00 0.00 80 1008.6
20260506160541 59 25 0.0 2.6 0.00 0.00 0.00 80 1008.5
20260506160115 58 71 0.9 3.5 0.00 0.00 0.00 81 1008.2
20260506155548 58 51 0.9 2.6 0.00 0.00 0.00 81 1008.4
20260506155034 58 294 0.0 1.7 0.00 0.00 0.00 81 1008.3
20260506154604 57 286 0.0 2.6 0.00 0.00 0.00 81 1008.0
20260506154046 57 286 0.0 3.5 0.00 0.00 0.00 82 1008.1
20260506153533 57 258 1.7 3.5 0.00 0.00 0.00 83 1008.0
20260506153056 56 214 0.0 2.6 0.00 0.00 0.00 84 1007.8
20260506152541 55 228 0.0 2.6 0.00 0.00 0.00 84 1007.9
20260506152026 55 316 0.0 3.5 0.00 0.00 0.00 85 1008.3
20260506151547 55 5 0.0 3.5 0.00 0.00 0.00 85 1008.5
20260506151014 55 263 0.0 4.3 0.00 0.00 0.00 85 1008.6
20260506150554 55 283 0.9 4.3 0.00 0.00 0.00 85 1008.7
20260506150012 55 73 0.0 5.2 0.00 0.00 0.00 86 1008.7
20260506145604 55 33 1.7 5.2 0.00 0.00 0.00 86 1008.8
20260506145054 55 246 0.0 3.5 0.00 0.00 0.00 86 1008.6
20260506144518 55 244 0.0 3.5 0.00 0.00 0.00 86 1008.6
20260506144107 55 5 0.0 2.6 0.00 0.00 0.00 86 1008.6
20260506143547 55 286 0.0 2.6 0.00 0.00 0.00 86 1008.5
20260506143007 55 293 0.9 1.7 0.00 0.00 0.00 87 1008.4
20260506142557 55 320 0.0 3.5 0.00 0.00 0.00 87 1008.4
20260506142041 55 320 0.9 3.5 0.00 0.00 0.00 87 1008.2
20260506141508 55 294 0.0 0.0 0.00 0.00 0.00 87 1008.0
20260506141054 55 294 0.0 0.0 0.00 0.00 0.00 87 1008.0
20260506140542 55 294 0.0 0.0 0.00 0.00 0.00 87 1007.6
20260506140002 55 292 0.0 0.0 0.00 0.00 0.00 87 1007.6
20260506135551 55 292 0.0 0.0 0.00 0.00 0.00 86 1007.6
20260506135038 55 292 0.0 0.0 0.00 0.00 0.00 86 1007.5
20260506134511 55 292 0.0 0.0 0.00 0.00 0.00 86 1007.5
20260506134059 55 292 0.0 0.0 0.00 0.00 0.00 86 1007.5
20260506133548 55 292 0.0 0.0 0.00 0.00 0.00 86 1007.5
20260506133012 55 292 0.0 0.0 0.00 0.00 0.00 85 1007.5
20260506132557 55 292 0.0 0.0 0.00 0.00 0.00 85 1007.4
20260506132039 55 292 0.0 0.0 0.00 0.00 0.00 85 1007.4
20260506131506 55 292 0.0 0.0 0.00 0.00 0.00 85 1007.4
20260506131059 55 292 0.0 0.0 0.00 0.00 0.00 85 1007.3
20260506130544 56 292 0.0 0.0 0.00 0.00 0.00 85 1007.2
20260506130009 56 292 0.0 0.0 0.00 0.00 0.00 85 1007.1
20260506125554 56 292 0.0 0.0 0.00 0.00 0.00 85 1007.0
20260506125040 56 292 0.0 0.0 0.00 0.00 0.00 85 1007.1
20260506124501 56 292 0.0 0.0 0.00 0.00 0.00 85 1007.1
20260506124051 56 292 0.0 0.0 0.00 0.00 0.00 85 1007.0
20260506123539 56 292 0.0 0.0 0.00 0.00 0.00 85 1006.9
20260506123100 56 292 0.0 0.0 0.00 0.00 0.00 85 1006.9
20260506122547 56 292 0.0 0.9 0.00 0.00 0.00 85 1006.9
20260506122036 56 292 0.0 0.9 0.00 0.00 0.00 85 1006.9
20260506121600 56 292 0.0 0.0 0.00 0.00 0.00 85 1007.0
20260506121049 56 292 0.0 0.0 0.00 0.00 0.00 85 1007.1
20260506120537 56 292 0.0 0.9 0.00 0.00 0.00 85 1007.1
20260506120058 56 292 0.0 0.0 0.00 0.00 0.00 85 1007.1
20260506115546 56 292 0.0 0.9 0.00 0.00 0.00 85 1007.1
20260506115035 56 292 0.0 2.6 0.00 0.00 0.00 85 1007.0
20260506114558 56 292 0.0 2.6 0.00 0.00 0.00 85 1006.9
20260506114046 56 292 0.0 2.6 0.00 0.00 0.00 85 1006.9
20260506113535 56 292 0.0 2.6 0.00 0.00 0.00 85 1006.8
20260506113058 56 14 0.0 3.5 0.00 0.00 0.00 85 1006.9
20260506112547 56 14 0.9 3.5 0.00 0.00 0.00 85 1006.8
20260506112034 57 348 0.0 0.0 0.00 0.00 0.00 85 1006.7
20260506111557 57 348 0.0 0.0 0.00 0.00 0.00 85 1006.7
20260506111046 57 348 0.0 0.0 0.00 0.00 0.00 85 1006.7
20260506110538 57 348 0.0 0.0 0.00 0.00 0.00 85 1006.5
20260506110008 57 348 0.0 0.0 0.00 0.00 0.00 85 1006.5
20260506105554 57 348 0.0 0.0 0.00 0.00 0.00 85 1006.4
20260506105041 57 348 0.0 0.0 0.00 0.00 0.00 85 1006.2
20260506104502 57 348 0.0 0.0 0.00 0.00 0.00 85 1006.2
20260506104052 57 348 0.0 0.0 0.00 0.00 0.00 85 1006.1
20260506103541 57 348 0.0 0.0 0.00 0.00 0.00 85 1006.0
20260506103003 57 348 0.0 0.0 0.00 0.00 0.00 85 1005.9
20260506102552 57 348 0.0 0.0 0.00 0.00 0.00 85 1005.9
20260506102040 57 348 0.0 0.0 0.00 0.00 0.00 85 1005.8
20260506101603 57 348 0.0 0.0 0.00 0.00 0.00 85 1005.9
20260506101051 57 348 0.0 0.0 0.00 0.00 0.00 85 1005.7
20260506100540 57 348 0.0 0.0 0.00 0.00 0.00 86 1005.7
20260506100100 57 348 0.0 0.0 0.00 0.00 0.00 86 1005.7
20260506095549 57 348 0.0 0.0 0.00 0.00 0.00 86 1005.8
20260506095037 57 348 0.0 0.0 0.00 0.00 0.00 85 1005.7
20260506094607 57 348 0.0 0.0 0.00 0.00 0.00 85 1005.7
20260506094046 57 348 0.0 0.0 0.00 0.00 0.00 85 1005.7
20260506093534 57 348 0.0 0.0 0.00 0.00 0.00 85 1005.6
20260506093058 57 348 0.0 0.0 0.00 0.00 0.00 85 1005.5
20260506092546 57 348 0.0 0.0 0.00 0.00 0.00 85 1005.6
20260506092035 57 348 0.0 0.0 0.00 0.00 0.00 85 1005.6
20260506091606 57 348 0.0 0.0 0.00 0.00 0.00 85 1005.5
20260506091045 57 348 0.0 0.0 0.00 0.00 0.00 85 1005.5
20260506090533 57 348 0.0 0.0 0.00 0.00 0.00 85 1005.5
20260506090058 57 348 0.0 0.0 0.00 0.00 0.00 85 1005.5
20260506085542 57 348 0.0 0.0 0.00 0.00 0.00 85 1005.5
20260506085031 57 348 0.0 0.0 0.00 0.00 0.00 85 1005.4
20260506084614 57 348 0.0 0.0 0.00 0.00 0.00 85 1005.4
20260506084043 57 348 0.0 0.0 0.00 0.00 0.00 85 1005.4
20260506083532 57 348 0.0 0.0 0.00 0.00 0.00 85 1005.4
20260506083055 57 348 0.0 0.0 0.00 0.00 0.00 85 1005.4
20260506082542 57 348 0.0 0.0 0.00 0.00 0.00 85 1005.4
20260506082031 57 348 0.0 0.0 0.00 0.00 0.00 85 1005.4
20260506081556 57 348 0.0 0.0 0.00 0.00 0.00 85 1005.4
20260506081042 57 348 0.0 0.0 0.00 0.00 0.00 85 1005.4
20260506080531 57 348 0.0 0.0 0.00 0.00 0.00 85 1005.4
20260506073059 58 348 0.0 0.0 0.00 0.00 0.00 85 1005.1
20260506072540 58 348 0.0 0.0 0.00 0.00 0.00 85 1005.1
20260506072028 58 348 0.0 0.0 0.00 0.00 0.00 85 1005.0
20260506071554 58 348 0.0 0.0 0.00 0.00 0.00 85 1004.9
20260506071040 58 348 0.0 0.0 0.00 0.00 0.00 85 1004.9
20260506070528 58 348 0.0 0.0 0.00 0.00 0.00 85 1004.9
20260506062516 57 348 0.0 0.0 0.00 0.00 0.00 85 1004.8
20260506062058 57 348 0.0 0.0 0.00 0.00 0.00 85 1004.7
20260506061538 57 348 0.0 0.0 0.00 0.00 0.00 85 1004.7
20260506061100 57 348 0.0 0.0 0.00 0.00 0.00 85 1004.7
20260506060549 57 348 0.0 0.0 0.00 0.00 0.00 85 1004.6
20260506051008 57 348 0.0 0.0 0.00 0.00 0.00 84 1004.5
20260506050556 57 348 0.0 0.0 0.00 0.00 0.00 84 1004.4
20260506045056 56 348 0.0 0.0 0.00 0.00 0.00 84 1004.4
20260506044522 57 348 0.0 0.0 0.00 0.00 0.00 83 1004.3
20260506044007 57 348 0.0 0.0 0.00 0.00 0.00 83 1004.3
20260506043556 57 348 0.0 0.0 0.00 0.00 0.00 83 1004.3
20260506043036 57 348 0.0 0.0 0.00 0.00 0.00 83 1004.2
20260506042511 57 348 0.0 0.0 0.00 0.00 0.00 82 1004.2
20260506042102 57 348 0.0 0.0 0.00 0.00 0.00 82 1004.1
20260506041526 57 348 0.0 0.0 0.00 0.00 0.00 81 1004.1
20260506041011 57 348 0.0 0.0 0.00 0.00 0.00 81 1004.0
20260506040552 58 348 0.0 0.0 0.00 0.00 0.00 81 1004.0
20260506040107 58 348 0.0 0.0 0.00 0.00 0.00 81 1004.0
20260506035540 58 348 0.0 0.0 0.00 0.00 0.00 80 1003.9
20260506035026 58 348 0.0 0.0 0.00 0.00 0.00 80 1003.9
20260506034549 58 348 0.0 0.0 0.00 0.00 0.00 80 1003.7
20260506034027 59 348 0.0 0.0 0.00 0.00 0.00 79 1003.5
20260506033511 59 348 0.0 0.0 0.00 0.00 0.00 79 1003.5
20260506033038 59 348 0.0 0.0 0.00 0.00 0.00 79 1003.5
20260506032521 59 348 0.0 0.0 0.00 0.00 0.00 79 1003.6
20260506032009 59 348 0.0 0.0 0.00 0.00 0.00 78 1003.5
20260506031548 60 348 0.0 0.0 0.00 0.00 0.00 78 1003.5
20260506031028 60 348 0.0 0.0 0.00 0.00 0.00 78 1003.5
20260506030517 60 348 0.0 0.0 0.00 0.00 0.00 77 1003.4
20260506030035 60 348 0.0 0.0 0.00 0.00 0.00 78 1003.4
20260506025523 61 348 0.0 0.0 0.00 0.00 0.00 76 1003.3
20260506025012 61 348 0.0 0.0 0.00 0.00 0.00 76 1003.2
20260506024541 61 348 0.0 0.0 0.00 0.00 0.00 76 1003.2
20260506024015 61 348 0.0 0.0 0.00 0.00 0.00 75 1003.1
20260506023502 62 348 0.0 0.9 0.00 0.00 0.00 74 1003.1
20260506023022 62 348 0.0 0.9 0.00 0.00 0.00 74 1003.2
20260506022513 62 350 0.0 0.9 0.00 0.00 0.00 74 1003.0
20260506022058 62 350 0.0 0.9 0.00 0.00 0.00 73 1003.0
20260506021529 63 350 0.0 0.9 0.00 0.00 0.00 72 1003.1
20260506021019 63 355 0.0 1.7 0.00 0.00 0.00 72 1003.2
20260506020502 63 346 0.0 1.7 0.00 0.00 0.00 72 1003.2
20260506020023 63 355 0.0 2.6 0.00 0.00 0.00 71 1003.2
20260506015514 64 24 0.9 2.6 0.00 0.00 0.00 70 1003.2
20260506015103 64 34 0.0 1.7 0.00 0.00 0.00 70 1003.1
20260506014518 64 355 0.0 0.0 0.00 0.00 0.00 69 1003.1
20260506014004 65 355 0.0 2.6 0.00 0.00 0.00 69 1003.1
20260506013555 65 355 0.9 3.5 0.00 0.00 0.00 69 1003.1
20260506013026 65 34 1.7 3.5 0.00 0.00 0.00 69 1003.1
20260506012514 65 70 0.9 3.5 0.00 0.00 0.00 68 1003.1
20260506012002 65 360 1.7 4.3 0.00 0.00 0.00 69 1003.1
20260506011530 65 44 1.7 4.3 0.00 0.00 0.00 69 1003.1
20260506011015 65 30 2.6 4.3 0.00 0.00 0.00 69 1003.2
20260506010502 65 342 1.7 2.6 0.00 0.00 0.00 69 1003.2
20260506010024 64 301 0.9 4.3 0.00 0.00 0.00 68 1003.2
20260506005508 64 17 0.9 5.2 0.00 0.00 0.00 69 1003.2
20260506005054 64 346 1.7 4.3 0.00 0.00 0.00 72 1003.1
20260506004515 65 59 2.6 5.2 0.00 0.00 0.00 68 1003.1
20260506004004 65 44 1.7 5.2 0.00 0.00 0.00 69 1003.2
20260506003557 65 10 0.0 2.6 0.00 0.00 0.00 68 1003.1
20260506003015 64 34 0.0 0.9 0.00 0.00 0.00 69 1003.1
20260506002503 64 5 0.0 0.0 0.00 0.00 0.00 70 1003.1
20260506002052 64 5 0.0 0.0 0.00 0.00 0.00 72 1003.2
20260506001509 64 317 0.0 0.0 0.00 0.00 0.00 70 1003.2
20260506001100 65 42 0.0 0.9 0.00 0.00 0.00 69 1003.3
20260506000547 65 44 0.0 3.5 0.00 0.00 0.00 70 1003.4
20260506000014 65 30 1.7 3.5 0.00 0.00 0.00 69 1003.3
20260505235503 65 29 0.9 2.6 0.00 0.00 0.00 70 1003.4
20260505235053 65 63 0.9 3.5 0.00 0.00 0.00 69 1003.4
20260505234517 65 296 0.9 3.5 0.00 0.00 0.00 70 1003.4
20260505234056 65 294 0.9 3.5 0.00 0.00 0.00 69 1003.5
20260505233543 64 5 0.0 2.6 0.00 0.00 0.00 69 1003.5
20260505233101 64 355 0.0 3.5 0.00 0.00 0.00 69 1003.6
20260505232548 64 44 0.9 4.3 0.00 0.00 0.00 69 1003.7
20260505232041 64 279 0.9 4.3 0.00 0.00 0.00 70 1003.6
20260505231608 64 360 0.0 5.2 0.00 0.00 0.00 70 1003.7
20260505231047 64 334 2.6 5.2 0.00 0.00 0.00 72 1003.6
20260505230535 63 46 2.6 5.2 0.00 0.00 0.00 72 1003.7
20260505230004 63 307 0.9 4.3 0.00 0.00 0.00 71 1003.7
20260505225554 63 319 1.7 5.2 0.00 0.00 0.00 71 1003.8
20260505225043 63 9 1.7 5.2 0.00 0.00 0.00 71 1003.8
20260505224503 63 296 2.6 4.3 0.00 0.00 0.00 72 1003.8
20260505224054 63 77 0.9 5.2 0.00 0.00 0.00 73 1003.8
20260505223542 63 45 2.6 5.2 0.00 0.00 0.00 72 1003.9
20260505223011 63 74 1.7 3.5 0.00 0.00 0.00 71 1003.8
20260505222605 63 198 0.9 4.3 0.00 0.00 0.00 71 1003.9
20260505222051 63 256 1.7 6.1 0.00 0.00 0.00 72 1003.9
20260505221510 63 286 1.7 4.3 0.00 0.00 0.00 71 1003.9
20260505221059 62 82 0.9 3.5 0.00 0.00 0.00 72 1004.0
20260505220548 62 49 0.9 3.5 0.00 0.00 0.00 71 1004.1
20260505220016 62 21 0.9 3.5 0.00 0.00 0.00 70 1004.1
20260505215503 62 161 1.7 2.6 0.00 0.00 0.00 74 1004.0
20260505215053 62 313 0.0 1.7 0.00 0.00 0.00 72 1004.0
20260505214523 62 313 0.0 2.6 0.00 0.00 0.00 72 1004.2
20260505214002 62 313 1.7 4.3 0.00 0.00 0.00 73 1004.2
20260505213554 62 292 0.0 4.3 0.00 0.00 0.00 73 1004.2
20260505213018 62 299 2.6 5.2 0.00 0.00 0.00 74 1004.1
20260505212503 62 5 0.9 2.6 0.00 0.00 0.00 74 1004.2
20260505212053 62 19 0.9 4.3 0.00 0.00 0.00 74 1004.1
20260505211513 62 104 1.7 5.2 0.00 0.00 0.00 75 1004.2
20260505211002 62 31 1.7 3.5 0.00 0.00 0.00 74 1004.2
20260505210551 62 39 1.7 5.2 0.00 0.00 0.00 73 1004.2
20260505210010 61 41 1.7 5.2 0.00 0.00 0.00 74 1004.2
20260505205601 61 5 0.9 5.2 0.00 0.00 0.00 72 1004.3
20260505205050 61 355 2.6 5.2 0.00 0.00 0.00 73 1004.2
20260505204517 61 328 1.7 5.2 0.00 0.00 0.00 74 1004.3
20260505204002 61 328 0.9 2.6 0.00 0.00 0.00 74 1004.3
20260505203551 61 325 0.9 2.6 0.00 0.00 0.00 73 1004.3
20260505203012 61 338 1.7 3.5 0.00 0.00 0.00 72 1004.3
20260505202604 61 24 1.7 3.5 0.00 0.00 0.00 73 1004.4
20260505202050 61 32 0.9 2.6 0.00 0.00 0.00 73 1004.4
20260505201512 61 113 0.9 2.6 0.00 0.00 0.00 73 1004.5
20260505201100 61 185 0.9 2.6 0.00 0.00 0.00 74 1004.5
20260505200547 60 178 0.0 4.3 0.00 0.00 0.00 73 1004.6
20260505200004 60 229 2.6 5.2 0.00 0.00 0.00 73 1004.4
20260505195557 60 321 1.7 4.3 0.00 0.00 0.00 74 1004.5
20260505195043 60 296 0.9 4.3 0.00 0.00 0.00 73 1004.5
20260505194505 60 279 0.9 7.0 0.00 0.00 0.00 74 1004.5
20260505194056 60 226 0.9 4.3 0.00 0.00 0.00 74 1004.5
20260505193542 60 107 0.9 3.5 0.00 0.00 0.00 73 1004.5
20260505193002 60 169 0.0 1.7 0.00 0.00 0.00 74 1004.4
20260505192552 60 169 0.9 6.1 0.00 0.00 0.00 75 1004.5
20260505192041 60 168 2.6 6.1 0.00 0.00 0.00 74 1004.5
20260505191501 60 273 0.9 4.3 0.00 0.00 0.00 74 1004.5
20260505191052 60 269 1.7 3.5 0.00 0.00 0.00 73 1004.5
20260505190539 60 306 0.9 3.5 0.00 0.00 0.00 73 1004.5
20260505190100 60 309 0.9 5.2 0.00 0.00 0.00 73 1004.5
20260505185549 60 302 2.6 5.2 0.00 0.00 0.00 73 1004.4
20260505185037 60 219 0.9 4.3 0.00 0.00 0.00 74 1004.5
20260505184600 60 163 0.0 4.3 0.00 0.00 0.00 74 1004.5
20260505184049 60 174 0.9 2.6 0.00 0.00 0.00 76 1004.4
20260505183539 60 289 0.0 2.6 0.00 0.00 0.00 75 1004.4
20260505183107 60 289 0.0 2.6 0.00 0.00 0.00 74 1004.4
20260505182549 60 326 0.0 1.7 0.00 0.00 0.00 75 1004.4
20260505182040 59 221 0.0 4.3 0.00 0.00 0.00 75 1004.4
20260505181503 59 307 2.6 4.3 0.00 0.00 0.00 75 1004.3
20260505181053 59 236 0.0 3.5 0.00 0.00 0.00 74 1004.3
20260505180541 59 196 0.0 4.3 0.00 0.00 0.00 75 1004.3